When you browse on this site, cookies collect data to enhance your experience and personalize the content and advertising you see.
Visit our Privacy Policy to learn more. By continuing to use the site, you agree to this use of cookies and data.
  • In Österreich
  • Länderverzeichnis
  • Für 7 Tage
  • Wassertemperatur
  • Wetterkarte
  • News
  • Widgets
  • user-avatar
    Anmelden

    Stündliche Wetter An der Strass

    Heute, 22 September, Sonntag

    Zeit Temperatur Niederschläge Wind Luftdruck Luftfeuchtigkeit
    00:00 +13°C° 0 mm 1 m/S 711 mmHg 74%
    01:00 +13°C° 0 mm 1 m/S 711 mmHg 71%
    02:00 +14°C° 0 mm 1 m/S 711 mmHg 69%
    03:00 +14°C° 0 mm 1 m/S 710 mmHg 67%
    04:00 +14°C° 0 mm 1 m/S 710 mmHg 65%
    05:00 +14°C° 0 mm 1 m/S 710 mmHg 67%
    06:00 +15°C° 0 mm 1 m/S 710 mmHg 69%
    07:00 +15°C° 0 mm 1 m/S 710 mmHg 70%
    08:00 +18°C° 0 mm 1 m/S 710 mmHg 65%
    09:00 +20°C° 0 mm 1 m/S 710 mmHg 59%
    10:00 +20°C° 0 mm 0 m/S 710 mmHg 54%
    11:00 +23°C° 0 mm 1 m/S 710 mmHg 51%
    12:00 +24°C° 0 mm 1 m/S 710 mmHg 48%
    13:00 +26°C° 0 mm 1 m/S 710 mmHg 46%
    14:00 +25°C° 0 mm 1 m/S 710 mmHg 48%
    15:00 +23°C° 0 mm 0 m/S 709 mmHg 50%
    16:00 +23°C° 0 mm 0 m/S 709 mmHg 52%
    17:00 +23°C° 0.1 mm 1 m/S 709 mmHg 59%
    18:00 +20°C° 0.1 mm 1 m/S 709 mmHg 66%
    19:00 +18°C° 0.1 mm 1 m/S 708 mmHg 73%
    20:00 +18°C° 0 mm 1 m/S 708 mmHg 76%
    21:00 +16°C° 0 mm 1 m/S 709 mmHg 78%
    22:00 +15°C° 0 mm 1 m/S 709 mmHg 80%
    23:00 +15°C° 0.2 mm 2 m/S 709 mmHg 83%

    Morgen, 23 September, Montag

    Zeit Temperatur Niederschläge Wind Luftdruck Luftfeuchtigkeit
    00:00 +14°C° 0.2 mm 3 m/S 709 mmHg 85%
    01:00 +14°C° 0.2 mm 4 m/S 710 mmHg 87%
    02:00 +13°C° 1.4 mm 3 m/S 710 mmHg 91%
    03:00 +13°C° 1.4 mm 2 m/S 710 mmHg 94%
    04:00 +13°C° 1.4 mm 1 m/S 710 mmHg 97%
    05:00 +13°C° 1.2 mm 1 m/S 710 mmHg 97%
    06:00 +13°C° 1.2 mm 1 m/S 711 mmHg 97%
    07:00 +13°C° 1.2 mm 1 m/S 711 mmHg 97%
    08:00 +13°C° 1.5 mm 1 m/S 711 mmHg 96%
    09:00 +13°C° 1.5 mm 1 m/S 712 mmHg 95%
    10:00 +13°C° 1.5 mm 1 m/S 712 mmHg 94%
    11:00 +14°C° 0.4 mm 1 m/S 712 mmHg 90%
    12:00 +15°C° 0.4 mm 1 m/S 712 mmHg 85%
    13:00 +16°C° 0.4 mm 1 m/S 712 mmHg 80%
    14:00 +16°C° 0.1 mm 1 m/S 712 mmHg 76%
    15:00 +18°C° 0.1 mm 1 m/S 712 mmHg 71%
    16:00 +18°C° 0.1 mm 1 m/S 712 mmHg 67%
    17:00 +16°C° 0.1 mm 1 m/S 712 mmHg 75%
    18:00 +13°C° 0.1 mm 0 m/S 712 mmHg 82%
    19:00 +11°C° 0.1 mm 0 m/S 712 mmHg 90%
    20:00 +10°C° 0 mm 0 m/S 712 mmHg 91%
    21:00 +11°C° 0 mm 1 m/S 712 mmHg 92%
    22:00 +11°C° 0 mm 1 m/S 712 mmHg 92%
    23:00 +10°C° 0 mm 1 m/S 712 mmHg 92%

    übermorgen, 24 September, Dienstag

    Zeit Temperatur Niederschläge Wind Luftdruck Luftfeuchtigkeit
    00:00 +10°C° 0 mm 1 m/S 712 mmHg 92%
    01:00 +10°C° 0 mm 1 m/S 712 mmHg 91%
    02:00 +10°C° 0 mm 1 m/S 711 mmHg 91%
    03:00 +9°C° 0 mm 1 m/S 711 mmHg 90%
    04:00 +9°C° 0 mm 1 m/S 711 mmHg 89%
    05:00 +9°C° 0 mm 1 m/S 710 mmHg 88%
    06:00 +9°C° 0 mm 1 m/S 710 mmHg 86%
    07:00 +10°C° 0 mm 1 m/S 710 mmHg 84%
    08:00 +12°C° 0 mm 1 m/S 710 mmHg 76%
    09:00 +14°C° 0 mm 0 m/S 710 mmHg 68%
    10:00 +16°C° 0 mm 0 m/S 710 mmHg 60%
    11:00 +19°C° 0 mm 1 m/S 709 mmHg 56%
    12:00 +20°C° 0 mm 1 m/S 709 mmHg 52%
    13:00 +21°C° 0 mm 1 m/S 709 mmHg 48%
    14:00 +20°C° 0 mm 1 m/S 709 mmHg 55%
    15:00 +18°C° 0 mm 2 m/S 708 mmHg 62%
    16:00 +16°C° 0 mm 2 m/S 708 mmHg 68%
    17:00 +15°C° 0.5 mm 2 m/S 708 mmHg 77%
    18:00 +14°C° 0.5 mm 2 m/S 708 mmHg 85%
    19:00 +13°C° 0.5 mm 2 m/S 708 mmHg 93%
    20:00 +13°C° 1.3 mm 2 m/S 708 mmHg 93%
    21:00 +13°C° 1.3 mm 1 m/S 708 mmHg 94%
    22:00 +13°C° 1.3 mm 1 m/S 708 mmHg 94%
    23:00 +13°C° 0.1 mm 1 m/S 708 mmHg 94%

    25 September, Mittwoch

    Zeit Temperatur Niederschläge Wind Luftdruck Luftfeuchtigkeit
    00:00 +13°C° 0.1 mm 1 m/S 708 mmHg 94%
    01:00 +13°C° 0.1 mm 1 m/S 708 mmHg 94%
    02:00 +13°C° 0.4 mm 1 m/S 708 mmHg 94%
    03:00 +13°C° 0.4 mm 1 m/S 708 mmHg 94%
    04:00 +13°C° 0.4 mm 1 m/S 708 mmHg 95%
    05:00 +12°C° 0.2 mm 1 m/S 708 mmHg 94%
    06:00 +12°C° 0.2 mm 1 m/S 708 mmHg 94%
    07:00 +12°C° 0.2 mm 1 m/S 708 mmHg 94%
    08:00 +12°C° 0.2 mm 1 m/S 708 mmHg 93%
    09:00 +13°C° 0.2 mm 2 m/S 708 mmHg 91%
    10:00 +13°C° 0.2 mm 2 m/S 708 mmHg 90%
    11:00 +14°C° 0.3 mm 2 m/S 708 mmHg 86%
    12:00 +14°C° 0.3 mm 2 m/S 708 mmHg 83%
    13:00 +14°C° 0.3 mm 3 m/S 708 mmHg 80%
    14:00 +15°C° 0.5 mm 2 m/S 708 mmHg 82%
    15:00 +14°C° 0.5 mm 2 m/S 708 mmHg 84%
    16:00 +14°C° 0.5 mm 2 m/S 708 mmHg 85%
    17:00 +13°C° 0.2 mm 2 m/S 709 mmHg 87%
    18:00 +13°C° 0.2 mm 2 m/S 709 mmHg 89%
    19:00 +12°C° 0.2 mm 1 m/S 709 mmHg 91%
    20:00 +11°C° 0.1 mm 1 m/S 710 mmHg 91%
    21:00 +11°C° 0.1 mm 1 m/S 710 mmHg 92%
    22:00 +11°C° 0.1 mm 1 m/S 710 mmHg 92%
    23:00 +10°C° 0 mm 1 m/S 710 mmHg 92%

    26 September, Donnerstag

    Zeit Temperatur Niederschläge Wind Luftdruck Luftfeuchtigkeit
    00:00 +10°C° 0 mm 1 m/S 710 mmHg 92%
    01:00 +9°C° 0 mm 1 m/S 710 mmHg 92%
    02:00 +9°C° 0 mm 1 m/S 710 mmHg 91%
    03:00 +9°C° 0 mm 1 m/S 710 mmHg 91%
    04:00 +9°C° 0 mm 1 m/S 711 mmHg 90%
    05:00 +9°C° 0 mm 1 m/S 711 mmHg 89%
    06:00 +10°C° 0 mm 1 m/S 711 mmHg 88%
    07:00 +10°C° 0 mm 1 m/S 711 mmHg 87%
    08:00 +12°C° 0 mm 1 m/S 711 mmHg 80%
    09:00 +14°C° 0 mm 1 m/S 711 mmHg 73%
    10:00 +18°C° 0 mm 1 m/S 712 mmHg 65%
    11:00 +19°C° 0 mm 1 m/S 712 mmHg 61%
    12:00 +20°C° 0 mm 1 m/S 711 mmHg 56%
    13:00 +22°C° 0 mm 1 m/S 711 mmHg 51%
    14:00 +22°C° 0 mm 1 m/S 711 mmHg 53%
    15:00 +21°C° 0 mm 1 m/S 711 mmHg 56%
    16:00 +21°C° 0 mm 1 m/S 710 mmHg 58%
    17:00 +19°C° 0 mm 1 m/S 710 mmHg 67%
    18:00 +16°C° 0 mm 1 m/S 710 mmHg 77%
    19:00 +14°C° 0 mm 1 m/S 710 mmHg 87%
    20:00 +13°C° 0 mm 1 m/S 711 mmHg 87%
    21:00 +13°C° 0 mm 1 m/S 711 mmHg 87%
    22:00 +13°C° 0 mm 1 m/S 711 mmHg 87%
    23:00 +13°C° 0 mm 1 m/S 711 mmHg 85%

    27 September, Freitag

    Zeit Temperatur Niederschläge Wind Luftdruck Luftfeuchtigkeit
    00:00 +14°C° 0 mm 1 m/S 711 mmHg 84%
    01:00 +14°C° 0 mm 1 m/S 711 mmHg 83%
    02:00 +14°C° 0.1 mm 1 m/S 711 mmHg 83%
    03:00 +14°C° 0.1 mm 1 m/S 711 mmHg 82%
    04:00 +14°C° 0.1 mm 1 m/S 710 mmHg 82%
    05:00 +14°C° 0 mm 1 m/S 710 mmHg 83%
    06:00 +14°C° 0 mm 1 m/S 710 mmHg 83%
    07:00 +12°C° 0 mm 0 m/S 710 mmHg 83%
    08:00 +15°C° 0 mm 1 m/S 711 mmHg 79%
    09:00 +16°C° 0 mm 1 m/S 711 mmHg 74%
    10:00 +19°C° 0 mm 1 m/S 711 mmHg 70%
    11:00 +20°C° 0.1 mm 1 m/S 711 mmHg 67%
    12:00 +20°C° 0.1 mm 2 m/S 711 mmHg 65%
    13:00 +20°C° 0.1 mm 2 m/S 711 mmHg 62%
    14:00 +20°C° 0.7 mm 2 m/S 711 mmHg 69%
    15:00 +19°C° 0.7 mm 2 m/S 710 mmHg 76%
    16:00 +18°C° 0.7 mm 2 m/S 710 mmHg 83%
    17:00 +18°C° 0.6 mm 1 m/S 710 mmHg 87%
    18:00 +15°C° 0.6 mm 1 m/S 710 mmHg 91%
    19:00 +14°C° 0.6 mm 1 m/S 711 mmHg 94%
    20:00 +14°C° 1.8 mm 1 m/S 711 mmHg 95%
    21:00 +14°C° 1.8 mm 1 m/S 711 mmHg 96%
    22:00 +14°C° 1.8 mm 1 m/S 712 mmHg 98%
    23:00 +14°C° 0.9 mm 1 m/S 712 mmHg 97%
    Mehr zeigen